This demonstration page uses our WeatherBlox Daily Observations layout. Learn more.

Left ArrowRight Arrow

Hourly Observations for May 25, 2021

Temp ( °F °C ) Dew Point ( °F °C ) Humidity (%) Winds ( mph kmh ) Pressure ( in mb ) Visibility ( mi km ) Precip ( " mm )
12:53 am 00:53 Clear 72 22.2 53 11.7 52 52 ESE 12 19 29.83 1010 10 16 0.00 0.00
1:53 am 01:53 Clear 73 22.8 61 16.1 66 66 ESE 14 22 29.82 1010 10 16 0.00 0.00
2:53 am 02:53 Clear 72 22.2 64 17.8 76 76 SE 14 22 29.81 1010 10 16 0.00 0.00
3:53 am 03:53 Clear 71 21.7 64 17.8 79 79 SE 17 28 29.80 1009 10 16 0.00 0.00
4:53 am 04:53 Clear 70 21.1 64 17.8 82 82 SE 12 19 29.80 1009 10 16 0.00 0.00
5:53 am 05:53 Clear 69 20.6 64 17.8 84 84 SSE 10 17 29.82 1010 10 16 0.00 0.00
6:53 am 06:53 Sunny 68 20 64 17.8 87 87 E 6 9 29.84 1011 10 16 0.00 0.00
7:53 am 07:53 Sunny 70 21.1 65 18.3 84 84 E 8 13 29.85 1011 10 16 0.00 0.00
8:53 am 08:53 Sunny 73 22.8 65 18.3 76 76 SE 13 20 29.86 1011 10 16 0.00 0.00
9:53 am 09:53 Sunny 77 25 64 17.8 64 64 SE 12 19 29.88 1012 10 16 0.00 0.00
10:53 am 10:53 Sunny 81 27.2 62 16.7 53 53 SE 12 19 29.87 1012 10 16 0.00 0.00
11:53 am 11:53 Sunny 86 30 60 15.6 42 42 S 13 20 29.87 1012 10 16 0.00 0.00
12:53 pm 12:53 Sunny 90 32.2 54 12.2 29 29 W 8 13 29.85 1011 10 16 0.00 0.00
1:53 pm 13:53 Sunny 93 33.9 54 12.2 27 27 SSW 8 13 29.83 1010 10 16 0.00 0.00
2:53 pm 14:53 Sunny 96 35.6 39 3.9 14 14 WSW 10 17 29.80 1009 10 16 0.00 0.00
3:53 pm 15:53 Sunny 96 35.6 30 -1.1 10 10 undefined N/A 29.78 1008 10 16 0.00 0.00
4:53 pm 16:53 Sunny 97 36.1 32 0 10 10 NW 6 9 29.75 1008 10 16 0.00 0.00
5:53 pm 17:53 Sunny 97 36.1 34 1.1 11 11 NNW 6 9 29.75 1007 10 16 0.00 0.00
6:53 pm 18:53 Sunny 94 34.4 44 6.7 18 18 SE 25 41 29.75 1008 10 16 0.00 0.00
7:53 pm 19:53 Sunny 90 32.2 53 11.7 28 28 SSE 24 39 29.76 1008 10 16 0.00 0.00
8:53 pm 20:53 Clear 85 29.4 60 15.6 43 43 SE 21 33 29.80 1009 10 16 0.00 0.00
9:53 pm 21:53 Clear 83 28.3 63 17.2 51 51 SSE 20 31 29.81 1010 10 16 0.00 0.00
10:53 pm 22:53 Clear 81 27.2 62 16.7 53 53 SE 16 26 29.85 1011 10 16 0.00 0.00
11:53 pm 23:53 Clear 79 26.1 63 17.2 58 58 SSE 15 24 29.85 1011 10 16 0.00 0.00

Powered by AerisWeather